Weather History for KD55 - January, 2014

Change the Weather History Date:

Friday, January 17, 2014

  Actual Average (KDVL) Record (KDVL)
Temperature  
Mean Temperature 8 °F -  
Max Temperature 26 °F 18 °F 46 °F (1972)
Min Temperature -9 °F -1 °F -31 °F (1962)
Degree Days  
Heating Degree Days 56    
Moisture  
Dew Point 3 °F    
Average Humidity 83    
Maximum Humidity 93    
Minimum Humidity 72    
Precipitation  
Precipitation 0.27 in - - ()
Sea Level Pressure  
Sea Level Pressure 29.79 in    
Wind  
Wind Speed 11 mph (SSW)    
Max Wind Speed 21 mph    
Max Gust Speed 26 mph    
Visibility 8 miles    
Events Rain , Snow    
Averages and records for this station are not official NWS values.
T = Trace of Precipitation, MM = Missing Value Source: NWS Daily Summary

Daily Weather History Graph

Daily Weather History Graph

Search for Another Location

Airport or City:

Trip Planner

Search our weather history database for the weather conditions in past years. The results will help you decide how hot, cold, wet, or windy it might be!

Date:

Astronomy

Jan. 17, 2014 Rise Set
Actual Time 8:19 AM CST 5:08 PM CST
Civil Twilight 7:44 AM CST 5:43 PM CST
Nautical Twilight 7:05 AM CST 6:22 PM CST
Astronomical Twilight 6:27 AM CST 7:00 PM CST
Moon 7:09 PM CST (1/17) 8:37 AM CST (1/17)
Length of Visible Light 9h 59m
Length of Day
8h 48m
Full, 98% of the Moon is Illuminated
Jan 17
Full
Jan 23
Last Quarter
Jan 30
New
Feb 6
First Quarter
Feb 14
Full

Hourly Weather History & Observations

Time (CST) Temp. Windchill Dew Point Humidity Pressure Visibility Wind Dir Wind Speed Gust Speed Precip Events Conditions
12:15 AM -7.6 °F -27.5 °F -13.0 °F 77% 30.09 in 10.0 mi West 12.7 mph - N/A   Clear
12:35 AM -7.6 °F -24.6 °F -13.0 °F 77% 30.08 in 10.0 mi WNW 9.2 mph - N/A   Clear
12:55 AM -9.4 °F -27.9 °F -13.0 °F 84% 30.08 in 10.0 mi WNW 10.4 mph - N/A   Clear
1:15 AM -7.6 °F -24.6 °F -13.0 °F 77% 30.07 in 10.0 mi WNW 9.2 mph - N/A   Clear
1:35 AM -7.6 °F -25.7 °F -13.0 °F 77% 30.07 in 10.0 mi WNW 10.4 mph - N/A   Clear
1:55 AM -7.6 °F -23.4 °F -13.0 °F 77% 30.07 in 10.0 mi WNW 8.1 mph - N/A   Clear
2:15 AM -7.6 °F -18.8 °F -13.0 °F 77% 30.06 in 10.0 mi WNW 4.6 mph - N/A   Clear
2:35 AM -7.6 °F -16.5 °F -13.0 °F 77% 30.05 in 10.0 mi WNW 3.5 mph - N/A   Clear
2:55 AM -7.6 °F -16.5 °F -13.0 °F 77% 30.04 in 10.0 mi NW 3.5 mph - N/A   Clear
3:15 AM -9.4 °F - -13.0 °F 84% 30.03 in 10.0 mi Calm Calm - N/A   Clear
3:35 AM -9.4 °F -18.6 °F -13.0 °F 84% 30.03 in 10.0 mi NW 3.5 mph - N/A   Clear
3:55 AM -7.6 °F - -13.0 °F 77% 30.03 in 10.0 mi Calm Calm - N/A   Clear
4:15 AM -7.6 °F -20.6 °F -11.2 °F 84% 30.03 in 10.0 mi West 5.8 mph - N/A   Clear
4:35 AM -9.4 °F -22.7 °F -13.0 °F 84% 30.02 in 10.0 mi WSW 5.8 mph - N/A   Clear
4:55 AM -7.6 °F -23.4 °F -13.0 °F 77% 30.02 in 10.0 mi WSW 8.1 mph - N/A   Clear
5:15 AM -9.4 °F -26.8 °F -14.8 °F 77% 30.01 in 10.0 mi WSW 9.2 mph - N/A   Clear
5:35 AM -7.6 °F -20.6 °F -13.0 °F 77% 30.00 in 10.0 mi SW 5.8 mph - N/A   Clear
5:55 AM -9.4 °F -20.9 °F -13.0 °F 84% 29.99 in 10.0 mi SSW 4.6 mph - N/A   Clear
6:15 AM -7.6 °F -23.4 °F -13.0 °F 77% 29.98 in 10.0 mi South 8.1 mph - N/A   Clear
6:35 AM -7.6 °F -23.4 °F -13.0 °F 77% 29.98 in 10.0 mi SSW 8.1 mph - N/A   Clear
6:55 AM -7.6 °F -23.4 °F -13.0 °F 77% 29.98 in 10.0 mi SSW 8.1 mph - N/A   Clear
7:15 AM -7.6 °F -24.6 °F -13.0 °F 77% 29.97 in 10.0 mi SSW 9.2 mph - N/A   Clear
7:35 AM -7.6 °F -26.6 °F -13.0 °F 77% 29.96 in 10.0 mi SSW 11.5 mph - N/A   Clear
7:55 AM -7.6 °F -26.6 °F - N/A% 29.96 in 10.0 mi SSW 11.5 mph - N/A   Clear
8:15 AM -5.8 °F -25.2 °F -11.2 °F 77% 29.95 in 10.0 mi SSW 12.7 mph - N/A   Clear
8:35 AM -5.8 °F -24.4 °F -11.2 °F 77% 29.94 in 10.0 mi SSW 11.5 mph - N/A   Clear
8:55 AM -4.0 °F -21.2 °F -9.4 °F 78% 29.94 in 10.0 mi South 10.4 mph - N/A   Clear
9:15 AM -2.2 °F -15.6 °F -7.6 °F 78% 29.93 in 10.0 mi South 6.9 mph - N/A   Clear
9:35 AM -0.4 °F -17.6 °F -5.8 °F 78% 29.93 in 10.0 mi SSW 11.5 mph - N/A   Clear
9:55 AM -0.4 °F -17.6 °F -4.0 °F 85% 29.92 in 10.0 mi SSW 11.5 mph - N/A   Clear
10:15 AM 1.4 °F -12.5 °F -2.2 °F 85% 29.92 in 10.0 mi SSW 8.1 mph - N/A   Clear
10:35 AM 3.2 °F -12.2 °F -0.4 °F 85% 29.92 in 10.0 mi South 10.4 mph - N/A   Clear
10:55 AM 5.0 °F -10.0 °F -0.4 °F 78% 29.91 in 10.0 mi South 10.4 mph - N/A   Clear
11:15 AM 6.8 °F -5.9 °F -0.4 °F 72% 29.90 in 10.0 mi South 8.1 mph - N/A   Clear
11:35 AM 8.6 °F -7.0 °F 1.4 °F 73% 29.88 in 10.0 mi South 12.7 mph - N/A   Clear
11:55 AM 8.6 °F -8.3 °F 1.4 °F 73% 29.86 in 10.0 mi South 15.0 mph - N/A   Clear
12:15 PM 10.4 °F -5.4 °F 5.0 °F 79% 29.85 in 10.0 mi South 13.8 mph - N/A   Clear
12:35 PM 10.4 °F -5.4 °F 5.0 °F 79% 29.83 in 10.0 mi South 13.8 mph - N/A   Clear
12:55 PM 10.4 °F -7.2 °F 6.8 °F 85% 29.81 in 10.0 mi South 17.3 mph - N/A   Clear
1:15 PM 12.2 °F -4.8 °F 6.8 °F 79% 29.80 in 10.0 mi South 17.3 mph - N/A   Clear
1:35 PM 14.0 °F -2.5 °F 8.6 °F 79% 29.79 in 10.0 mi South 17.3 mph - N/A   Partly Cloudy
1:55 PM 14.0 °F -0.8 °F 8.6 °F 79% 29.78 in 10.0 mi South 13.8 mph - N/A   Partly Cloudy
2:15 PM 14.0 °F -1.4 °F 10.4 °F 86% 29.77 in 10.0 mi South 15.0 mph - N/A   Scattered Clouds
2:35 PM 15.8 °F 0.9 °F 10.4 °F 79% 29.76 in 10.0 mi South 15.0 mph - N/A   Partly Cloudy
2:55 PM 15.8 °F -0.6 °F 10.4 °F 79% 29.72 in 10.0 mi South 18.4 mph - N/A   Clear
3:15 PM 15.8 °F -1.1 °F 12.2 °F 86% 29.70 in 10.0 mi South 19.6 mph - N/A   Clear
3:35 PM 17.6 °F 1.3 °F 14.0 °F 86% 29.70 in 10.0 mi South 19.6 mph - N/A   Clear
3:55 PM 17.6 °F 2.2 °F 14.0 °F 86% 29.70 in 10.0 mi South 17.3 mph - N/A   Mostly Cloudy
4:15 PM 17.6 °F 1.7 °F 14.0 °F 86% 29.69 in 10.0 mi South 18.4 mph 23.0 mph N/A   Mostly Cloudy
4:35 PM 17.6 °F 2.7 °F 14.0 °F 86% 29.68 in 3.0 mi South 16.1 mph 21.9 mph N/A Snow Light Snow
4:55 PM 17.6 °F 1.7 °F 14.0 °F 86% 29.66 in 1.5 mi South 18.4 mph - N/A Snow Light Snow
5:15 PM 17.6 °F 1.3 °F 14.0 °F 86% 29.65 in 1.5 mi South 19.6 mph - N/A Snow Light Snow
5:35 PM 17.6 °F 1.7 °F 15.8 °F 93% 29.63 in 1.0 mi South 18.4 mph - N/A   Overcast
5:55 PM 17.6 °F 2.2 °F 15.8 °F 93% 29.61 in 1.8 mi South 17.3 mph - N/A   Overcast
6:15 PM 17.6 °F 1.3 °F 15.8 °F 93% 29.59 in 1.8 mi South 19.6 mph - N/A   Overcast
6:35 PM 17.6 °F 1.7 °F 15.8 °F 93% 29.58 in 2.0 mi South 18.4 mph - N/A   Overcast
6:55 PM 19.4 °F 3.6 °F 15.8 °F 86% 29.57 in 1.5 mi South 19.6 mph - N/A Snow Light Snow
7:15 PM 19.4 °F 3.6 °F 15.8 °F 86% 29.54 in 1.0 mi South 19.6 mph - N/A Snow Light Snow
7:35 PM 19.4 °F 4.1 °F 17.6 °F 93% 29.52 in 2.0 mi South 18.4 mph - N/A Snow Light Snow
7:55 PM 19.4 °F 4.5 °F 17.6 °F 93% 29.50 in 3.0 mi South 17.3 mph - N/A   Overcast
8:15 PM 21.2 °F 6.4 °F 17.6 °F 86% 29.47 in 2.5 mi South 18.4 mph - N/A Snow Light Snow
8:35 PM 21.2 °F 7.3 °F 19.4 °F 93% 29.47 in 3.0 mi South 16.1 mph - 0.01 in Snow Light Snow
8:55 PM 23.0 °F 10.1 °F 19.4 °F 86% 29.44 in 0.8 mi South 15.0 mph - 0.01 in Snow Light Snow
9:15 PM 23.0 °F 10.6 °F 19.4 °F 86% 29.43 in 0.5 mi South 13.8 mph - N/A Snow Snow
9:35 PM 23.0 °F 9.6 °F 21.2 °F 93% 29.41 in 1.0 mi SSW 16.1 mph 19.6 mph 0.01 in Snow Light Snow
9:55 PM 23.0 °F 12.4 °F 21.2 °F 93% 29.40 in 2.0 mi SW 10.4 mph - 0.01 in Snow Light Snow
10:15 PM 24.8 °F 15.3 °F 23.0 °F 93% 29.39 in 5.0 mi West 9.2 mph - N/A Snow Light Snow
10:35 PM 24.8 °F 12.9 °F 23.0 °F 93% 29.39 in 3.0 mi WNW 13.8 mph - 0.02 in Snow Light Snow
10:55 PM 26.6 °F 14.3 °F 24.8 °F 93% 29.38 in 2.0 mi NW 16.1 mph - 0.07 in Snow Light Snow
11:15 PM 26.6 °F 13.1 °F 24.8 °F 93% 29.38 in 1.5 mi NNW 19.6 mph - 0.04 in Snow Light Snow
11:35 PM 26.6 °F 12.7 °F 24.8 °F 93% 29.39 in 3.0 mi NNW 20.7 mph 26.5 mph 0.18 in Snow Light Snow
11:55 PM 26.6 °F 13.4 °F 24.8 °F 93% 29.39 in 5.0 mi NNW 18.4 mph - 0.18 in Rain Light Freezing Rain